Pittsfield, IL

6:22 PM CDT on May 26, 2017 (GMT -0500)
Pittsfield Penstone Municipal

Weather History for KPPQ - May, 2014

Change the Weather History Date:

Wednesday, May 14, 2014

  Actual Average (KUIN) Record (KUIN)
Temperature  
Mean Temperature 50 °F -  
Max Temperature 55 °F 72 °F 94 °F (1915)
Min Temperature 46 °F 51 °F 35 °F (1920)
Degree Days  
Heating Degree Days 14    
Moisture  
Dew Point 43 °F    
Average Humidity 77    
Maximum Humidity 90    
Minimum Humidity 56    
Precipitation  
Precipitation 0.14 in - - ()
Sea Level Pressure  
Sea Level Pressure 30.16 in    
Wind  
Wind Speed 6 mph (NNW)    
Max Wind Speed 16 mph    
Max Gust Speed 24 mph    
Visibility 10 miles    
Events Rain    
Averages and records for this station are not official NWS values.
T = Trace of Precipitation, MM = Missing Value Source: NWS Daily Summary

Daily Weather History Graph

Daily Weather History Graph

Search for Another Location

Airport or City:

Trip Planner

Search our weather history database for the weather conditions in past years. The results will help you decide how hot, cold, wet, or windy it might be!

Date:

Astronomy

May. 14, 2014 Rise Set
Actual Time 5:49 AM CDT 8:09 PM CDT
Civil Twilight 5:19 AM CDT 8:40 PM CDT
Nautical Twilight 4:41 AM CDT 9:17 PM CDT
Astronomical Twilight 4:00 AM CDT 9:59 PM CDT
Moon 8:15 PM CDT (5/14) 5:48 AM CDT (5/14)
Length of Visible Light 15h 20m
Length of Day
14h 20m
Full, 100% of the Moon is Illuminated
May 14
Full
May 14
Full
May 21
Last Quarter
May 28
New
Jun 5
First Quarter

Hourly Weather History & Observations

Time (CDT) Temp. Dew Point Humidity Pressure Visibility Wind Dir Wind Speed Gust Speed Precip Events Conditions
12:15 AM 51.6 °F 46.9 °F 84% 30.24 in 10.0 mi Calm Calm - N/A   Clear
12:35 AM 51.1 °F 47.3 °F 87% 30.23 in 10.0 mi NW 4.6 mph - N/A   Clear
12:55 AM 51.8 °F 46.4 °F 82% 30.22 in 10.0 mi NW 5.8 mph - N/A   Clear
1:15 AM 51.4 °F 45.7 °F 81% 30.23 in 10.0 mi NW 4.6 mph - N/A   Clear
1:35 AM 50.9 °F 45.1 °F 81% 30.21 in 10.0 mi NNW 6.9 mph - N/A   Clear
1:55 AM 51.1 °F 44.6 °F 78% 30.21 in 10.0 mi NNW 5.8 mph - N/A   Clear
2:15 AM 50.9 °F 44.4 °F 78% 30.21 in 10.0 mi North 6.9 mph - N/A   Clear
2:35 AM 50.9 °F 44.2 °F 78% 30.23 in 10.0 mi North 6.9 mph - N/A   Clear
2:55 AM 50.0 °F 44.6 °F 82% 30.23 in 10.0 mi NNW 6.9 mph - N/A   Clear
3:15 AM 49.6 °F 44.2 °F 82% 30.21 in 10.0 mi NNW 5.8 mph - N/A   Clear
3:35 AM 49.6 °F 43.0 °F 78% 30.21 in 10.0 mi NNW 5.8 mph - N/A   Clear
3:55 AM 49.1 °F 43.5 °F 81% 30.23 in 10.0 mi NNW 5.8 mph - N/A   Clear
4:15 AM 49.1 °F 43.5 °F 81% 30.23 in 10.0 mi NW 4.6 mph - N/A   Clear
4:35 AM 48.6 °F 43.5 °F 83% 30.21 in 10.0 mi NNW 5.8 mph - N/A   Clear
4:55 AM 48.6 °F 43.2 °F 82% 30.21 in 10.0 mi NW 5.8 mph - N/A   Clear
5:15 AM 48.2 °F 42.3 °F 80% 30.21 in 10.0 mi NNW 5.8 mph - N/A   Clear
5:35 AM 47.5 °F 41.9 °F 81% 30.21 in 10.0 mi NNW 5.8 mph - N/A   Clear
5:55 AM 47.5 °F 41.4 °F 79% 30.21 in 10.0 mi NNW 6.9 mph - N/A   Clear
6:15 AM 48.2 °F 41.4 °F 77% 30.21 in 10.0 mi NNW 8.1 mph - N/A   Clear
6:35 AM 48.2 °F 42.3 °F 80% 30.21 in 10.0 mi NNW 8.1 mph - N/A   Clear
6:55 AM 48.7 °F 42.4 °F 79% 30.23 in 10.0 mi Calm Calm - N/A   Clear
7:15 AM 49.1 °F 43.5 °F 81% 30.21 in 10.0 mi NW 5.8 mph - N/A   Clear
7:35 AM 49.5 °F 43.7 °F 81% 30.21 in 10.0 mi NNW 6.9 mph - N/A   Clear
7:55 AM 50.0 °F 43.0 °F 77% 30.19 in 10.0 mi North 9.2 mph - N/A   Clear
8:15 AM 50.9 °F 43.3 °F 75% 30.18 in 10.0 mi North 11.5 mph - N/A   Clear
8:35 AM 50.5 °F 42.8 °F 75% 30.18 in 10.0 mi North 9.2 mph 16.1 mph N/A   Clear
8:55 AM 50.7 °F 42.8 °F 74% 30.19 in 10.0 mi North 8.1 mph - N/A   Clear
9:15 AM 51.3 °F 43.0 °F 73% 30.20 in 10.0 mi North 6.9 mph - N/A   Clear
9:35 AM 52.0 °F 43.0 °F 71% 30.20 in 10.0 mi NNW 6.9 mph - N/A   Clear
9:55 AM 52.2 °F 42.1 °F 69% 30.21 in 10.0 mi NNW 9.2 mph - N/A   Scattered Clouds
10:15 AM 53.6 °F 42.8 °F 67% 30.23 in 10.0 mi North 8.1 mph - N/A   Clear
10:35 AM 53.8 °F 42.1 °F 65% 30.20 in 10.0 mi NNW 13.8 mph - N/A   Clear
10:55 AM 54.5 °F 41.2 °F 61% 30.19 in 10.0 mi North 16.1 mph 20.7 mph N/A   Mostly Cloudy
11:15 AM 55.4 °F 41.2 °F 59% 30.18 in 10.0 mi North 16.1 mph - N/A   Mostly Cloudy
11:35 AM 53.6 °F 39.2 °F 58% 30.18 in 10.0 mi North 9.2 mph 19.6 mph N/A   Mostly Cloudy
11:55 AM 53.8 °F 38.5 °F 56% 30.19 in 10.0 mi North 11.5 mph 17.3 mph N/A   Mostly Cloudy
12:15 PM 53.6 °F 38.5 °F 57% 30.18 in 10.0 mi North 11.5 mph - N/A   Mostly Cloudy
12:35 PM 52.9 °F 39.6 °F 61% 30.18 in 10.0 mi North 9.2 mph - N/A   Overcast
12:55 PM 52.7 °F 39.6 °F 61% 30.16 in 10.0 mi NNW 9.2 mph - N/A   Overcast
1:15 PM 52.2 °F 40.5 °F 64% 30.14 in 10.0 mi NNW 12.7 mph - N/A   Overcast
1:35 PM 52.3 °F 40.5 °F 64% 30.14 in 10.0 mi North 12.7 mph 18.4 mph N/A   Overcast
1:55 PM 52.7 °F 40.8 °F 64% 30.14 in 10.0 mi NNW 12.7 mph 17.3 mph N/A   Overcast
2:15 PM 52.5 °F 40.8 °F 64% 30.15 in 10.0 mi NNW 12.7 mph 16.1 mph N/A   Overcast
2:35 PM 52.7 °F 40.8 °F 64% 30.15 in 10.0 mi NNW 12.7 mph - N/A   Overcast
2:55 PM 53.6 °F 41.0 °F 62% 30.14 in 10.0 mi North 10.4 mph - N/A   Mostly Cloudy
3:15 PM 52.5 °F 41.4 °F 66% 30.13 in 10.0 mi NNW 12.7 mph - N/A   Overcast
3:35 PM 52.0 °F 42.8 °F 71% 30.12 in 10.0 mi NNW 11.5 mph - N/A   Overcast
3:55 PM 51.8 °F 41.9 °F 69% 30.11 in 10.0 mi North 15.0 mph 20.7 mph N/A   Overcast
4:15 PM 49.8 °F 42.1 °F 75% 30.09 in 10.0 mi North 15.0 mph 24.2 mph N/A Rain Light Rain
4:35 PM 49.1 °F 42.1 °F 77% 30.09 in 10.0 mi North 15.0 mph 21.9 mph N/A Rain Light Rain
4:55 PM 49.1 °F 42.1 °F 77% 30.09 in 10.0 mi North 11.5 mph - N/A Rain Light Rain
5:15 PM 49.1 °F 42.1 °F 77% 30.08 in 10.0 mi North 8.1 mph - N/A Rain Rain
5:35 PM 48.7 °F 42.3 °F 78% 30.07 in 10.0 mi NNE 10.4 mph - N/A Rain Light Rain
5:55 PM 48.4 °F 42.3 °F 79% 30.06 in 10.0 mi NNE 6.9 mph - 0.01 in Rain Light Rain
6:15 PM 48.4 °F 42.6 °F 80% 30.07 in 10.0 mi North 5.8 mph - N/A Rain Light Rain
6:35 PM 48.2 °F 43.0 °F 82% 30.09 in 10.0 mi NNW 5.8 mph - 0.01 in Rain Rain
6:55 PM 48.0 °F 43.2 °F 83% 30.09 in 7.0 mi NNW 8.1 mph - 0.03 in Rain Rain
7:15 PM 48.2 °F 43.5 °F 84% 30.10 in 7.0 mi NW 6.9 mph - 0.01 in Rain Light Rain
7:35 PM 47.8 °F 43.9 °F 86% 30.12 in 7.0 mi WNW 4.6 mph - 0.02 in Rain Light Rain
7:55 PM 47.7 °F 43.9 °F 87% 30.12 in 5.0 mi WNW 4.6 mph - 0.04 in Rain Light Rain
8:15 PM 47.5 °F 44.6 °F 90% 30.12 in 5.0 mi WNW 4.6 mph - 0.02 in Rain Rain
8:35 PM 47.3 °F 44.6 °F 90% 30.12 in 5.0 mi Calm Calm - 0.04 in Rain Light Rain
8:55 PM 47.3 °F 44.4 °F 90% 30.12 in 5.0 mi NNW 3.5 mph - 0.05 in Rain Light Rain
9:15 PM 47.3 °F 43.9 °F 88% 30.11 in 7.0 mi North 5.8 mph - N/A Rain Light Rain
9:35 PM 46.9 °F 43.7 °F 88% 30.11 in 10.0 mi Calm Calm - N/A   Light Drizzle
9:55 PM 47.3 °F 43.9 °F 88% 30.11 in 10.0 mi Calm Calm - N/A Rain Light Rain
10:15 PM 47.3 °F 44.4 °F 90% 30.11 in 10.0 mi Calm Calm - N/A   Drizzle
10:35 PM 47.3 °F 44.2 °F 89% 30.11 in 7.0 mi WNW 3.5 mph - 0.01 in   Light Drizzle
10:55 PM 48.2 °F 44.6 °F 87% 30.10 in 7.0 mi Calm Calm - N/A   Light Drizzle
11:15 PM 47.3 °F 44.1 °F 88% 30.09 in 10.0 mi North 3.5 mph - N/A   Mostly Cloudy
11:35 PM 47.1 °F 43.5 °F 87% 30.09 in 10.0 mi NNE 3.5 mph - N/A   Overcast
11:55 PM 47.3 °F 43.7 °F 87% 30.08 in 10.0 mi Calm Calm - N/A   Overcast